Simultaneous Nadir Overpasses (SNOs) Predictions

Prediction of SNOs between GOES-15 and METOP-A Satellite Orbit:

Table of predicted SNOs for the next 14.0 days since TLE Epoch: 5/19/2017
Index Date Time (GOES-15) GOES-15 Lat,Lon METOP-A Lat,Lon Distance(km) Time Diff (sec)
1 05/20/2017 06:25:31 0.13,-134.92 0.34,-133.85 120.54 80
2 05/21/2017 18:44:22 -0.13,-134.91 0.68,-138.42 399.64 80
3 05/22/2017 18:21:03 -0.13,-134.87 -0.45,-133.43 164.89 80
4 05/24/2017 06:40:02 0.13,-134.75 -0.58,-138.02 372.18 80
5 05/25/2017 06:22:01 0.13,-134.70 0.49,-133.02 192.09 80
6 05/26/2017 18:40:53 -0.13,-134.69 0.53,-137.58 329.29 80
7 05/27/2017 18:17:33 -0.13,-134.64 -0.61,-132.59 234.19 80
8 05/29/2017 06:36:31 0.13,-134.50 -0.48,-137.17 304.58 80
9 05/30/2017 06:18:32 0.14,-134.45 0.65,-132.18 258.90 80
10 05/31/2017 18:37:23 -0.14,-134.43 0.37,-136.74 262.94 80
11 06/01/2017 18:14:03 -0.15,-134.38 -0.71,-131.74 300.21 80




NCC Satellite Simultaneous Nadir Overpasses (SNOs) Prediction Service
